TimeCDT,TemperatureF,Dew PointF,Humidity,Sea Level PressureIn,VisibilityMPH,Wind Direction,Wind SpeedMPH,Gust SpeedMPH,PrecipitationIn,Events,Conditions,WindDirDegrees,DateUTC
12:15 AM,44.6,40.1,84,30.14,10.0,North,5.8,-,N/A,,Clear,360,2012-10-28 05:15:00
12:35 AM,44.2,39.7,84,30.14,10.0,North,3.5,-,N/A,,Clear,350,2012-10-28 05:35:00
12:55 AM,44.1,39.4,84,30.14,10.0,North,4.6,-,N/A,,Clear,360,2012-10-28 05:55:00
1:15 AM,44.1,39.2,83,30.14,10.0,North,5.8,-,N/A,,Clear,350,2012-10-28 06:15:00
1:35 AM,43.5,39.2,85,30.14,10.0,North,4.6,-,N/A,,Clear,360,2012-10-28 06:35:00
1:55 AM,43.2,38.5,84,30.13,10.0,North,4.6,-,N/A,,Clear,360,2012-10-28 06:55:00
2:15 AM,42.8,38.3,84,30.13,10.0,North,4.6,-,N/A,,Clear,350,2012-10-28 07:15:00
2:35 AM,41.9,38.5,88,30.13,10.0,NNW,3.5,-,N/A,,Clear,330,2012-10-28 07:35:00
2:55 AM,41.2,38.3,89,30.13,10.0,NNW,4.6,-,N/A,,Clear,330,2012-10-28 07:55:00
3:15 AM,41.0,37.8,88,30.13,10.0,NNW,3.5,-,N/A,,Clear,340,2012-10-28 08:15:00
3:35 AM,41.0,37.6,88,30.13,10.0,NNW,4.6,-,N/A,,Clear,330,2012-10-28 08:35:00
3:55 AM,41.0,37.8,88,30.13,10.0,NW,3.5,-,N/A,,Clear,320,2012-10-28 08:55:00
4:15 AM,40.6,37.9,90,30.13,10.0,WNW,3.5,-,N/A,,Clear,300,2012-10-28 09:15:00
4:35 AM,40.6,37.8,89,30.14,10.0,NW,3.5,-,N/A,,Clear,310,2012-10-28 09:35:00
4:55 AM,40.3,37.6,90,30.14,10.0,NW,3.5,-,N/A,,Clear,320,2012-10-28 09:55:00
5:15 AM,39.9,37.4,91,30.14,10.0,NW,3.5,-,N/A,,Clear,320,2012-10-28 10:15:00
5:35 AM,40.1,37.0,89,30.14,10.0,NNW,4.6,-,N/A,,Clear,330,2012-10-28 10:35:00
5:55 AM,39.7,36.9,89,30.14,10.0,NNW,3.5,-,N/A,,Clear,340,2012-10-28 10:55:00
6:15 AM,39.2,36.5,90,30.14,10.0,NNW,4.6,-,N/A,,Clear,330,2012-10-28 11:15:00
6:35 AM,39.2,36.5,90,30.15,10.0,Calm,Calm,-,N/A,,Clear,0,2012-10-28 11:35:00
6:55 AM,38.7,36.1,91,30.15,10.0,NNW,4.6,-,N/A,,Clear,340,2012-10-28 11:55:00
7:15 AM,38.7,35.8,89,30.16,10.0,NNW,5.8,-,N/A,,Clear,330,2012-10-28 12:15:00
7:35 AM,38.7,35.8,89,30.16,10.0,NNW,5.8,-,N/A,,Clear,340,2012-10-28 12:35:00
7:55 AM,39.4,36.5,89,30.17,10.0,NNW,8.1,-,N/A,,Clear,340,2012-10-28 12:55:00
8:15 AM,40.8,37.4,88,30.18,5.0,North,5.8,-,N/A,,Clear,350,2012-10-28 13:15:00
8:35 AM,42.4,37.8,83,30.19,7.0,North,8.1,-,N/A,,Clear,350,2012-10-28 13:35:00
8:55 AM,44.2,37.8,78,30.19,10.0,North,9.2,-,N/A,,Clear,360,2012-10-28 13:55:00
9:15 AM,46.0,38.3,74,30.19,10.0,North,11.5,-,N/A,,Clear,10,2012-10-28 14:15:00
9:35 AM,47.8,38.5,70,30.19,10.0,NNE,9.2,16.1,N/A,,Clear,20,2012-10-28 14:35:00
9:55 AM,50.2,37.9,63,30.19,10.0,North,9.2,-,N/A,,Clear,10,2012-10-28 14:55:00
10:15 AM,52.5,36.9,55,30.19,10.0,North,11.5,16.1,N/A,,Clear,360,2012-10-28 15:15:00
10:35 AM,54.0,35.6,50,30.19,10.0,NNE,12.7,16.1,N/A,,Clear,20,2012-10-28 15:35:00
10:55 AM,55.0,36.0,49,30.19,10.0,North,10.4,-,N/A,,Clear,360,2012-10-28 15:55:00
11:15 AM,56.3,35.1,45,30.19,10.0,North,12.7,20.7,N/A,,Clear,360,2012-10-28 16:15:00
11:35 AM,56.3,34.3,44,30.18,10.0,North,15.0,21.9,N/A,,Clear,10,2012-10-28 16:35:00
11:55 AM,57.4,33.1,40,30.18,10.0,North,18.4,21.9,N/A,,Clear,10,2012-10-28 16:55:00
12:15 PM,57.9,33.8,40,30.17,10.0,North,15.0,19.6,N/A,,Clear,10,2012-10-28 17:15:00
12:35 PM,58.5,34.0,40,30.17,10.0,North,11.5,20.7,N/A,,Clear,350,2012-10-28 17:35:00
12:55 PM,60.1,32.9,36,30.15,10.0,North,16.1,20.7,N/A,,Clear,360,2012-10-28 17:55:00
1:15 PM,61.0,33.8,36,30.15,10.0,North,13.8,19.6,N/A,,Clear,350,2012-10-28 18:15:00
1:35 PM,61.2,32.4,34,30.14,10.0,North,12.7,20.7,N/A,,Clear,350,2012-10-28 18:35:00
1:55 PM,61.7,32.0,33,30.13,10.0,North,13.8,25.3,N/A,,Clear,350,2012-10-28 18:55:00
2:15 PM,63.1,31.8,31,30.12,10.0,North,15.0,23.0,N/A,,Clear,10,2012-10-28 19:15:00
2:35 PM,62.6,31.8,32,30.12,10.0,NNW,16.1,23.0,N/A,,Clear,340,2012-10-28 19:35:00
2:55 PM,63.3,30.9,30,30.11,10.0,North,15.0,20.7,N/A,,Clear,360,2012-10-28 19:55:00
3:15 PM,63.7,32.5,31,30.11,10.0,NNW,11.5,18.4,N/A,,Clear,330,2012-10-28 20:15:00
3:35 PM,63.1,31.6,31,30.10,10.0,NNW,12.7,23.0,N/A,,Clear,330,2012-10-28 20:35:00
3:55 PM,63.7,32.9,32,30.10,10.0,North,15.0,21.9,N/A,,Clear,350,2012-10-28 20:55:00
4:15 PM,63.3,31.1,30,30.10,10.0,North,15.0,20.7,N/A,,Clear,10,2012-10-28 21:15:00
4:35 PM,63.0,31.1,30,30.10,10.0,North,11.5,19.6,N/A,,Clear,360,2012-10-28 21:35:00
4:55 PM,62.6,30.2,30,30.10,10.0,North,17.3,-,N/A,,Clear,10,2012-10-28 21:55:00
5:15 PM,62.2,32.0,32,30.11,10.0,North,11.5,-,N/A,,Clear,360,2012-10-28 22:15:00
5:35 PM,61.3,32.0,33,30.11,10.0,North,11.5,16.1,N/A,,Clear,350,2012-10-28 22:35:00
5:55 PM,60.3,32.9,36,30.12,10.0,North,11.5,-,N/A,,Clear,360,2012-10-28 22:55:00
6:15 PM,58.8,33.3,38,30.12,10.0,North,8.1,-,N/A,,Clear,350,2012-10-28 23:15:00
6:35 PM,56.8,33.3,41,30.13,10.0,North,8.1,-,N/A,,Clear,360,2012-10-28 23:35:00
6:55 PM,54.5,34.7,47,30.13,10.0,North,5.8,-,N/A,,Clear,360,2012-10-28 23:55:00
7:15 PM,53.2,35.4,51,30.14,10.0,North,3.5,-,N/A,,Clear,350,2012-10-29 00:15:00
7:35 PM,52.2,36.5,55,30.14,10.0,Calm,Calm,-,N/A,,Clear,0,2012-10-29 00:35:00
7:55 PM,51.4,36.9,58,30.15,10.0,Calm,Calm,-,N/A,,Clear,0,2012-10-29 00:55:00
8:15 PM,50.4,37.6,62,30.16,10.0,NNW,3.5,-,N/A,,Clear,330,2012-10-29 01:15:00
8:35 PM,50.4,37.4,61,30.17,10.0,Calm,Calm,-,N/A,,Clear,0,2012-10-29 01:35:00
8:55 PM,49.5,38.5,66,30.18,10.0,Calm,Calm,-,N/A,,Clear,0,2012-10-29 01:55:00
9:15 PM,48.2,38.5,69,30.18,10.0,Calm,Calm,-,N/A,,Clear,0,2012-10-29 02:15:00
9:35 PM,47.7,38.1,70,30.19,10.0,Calm,Calm,-,N/A,,Clear,0,2012-10-29 02:35:00
9:55 PM,47.3,38.3,71,30.19,10.0,Calm,Calm,-,N/A,,Clear,0,2012-10-29 02:55:00
10:35 PM,46.4,37.6,71,30.20,10.0,Calm,Calm,-,N/A,,Clear,0,2012-10-29 03:35:00
10:55 PM,45.9,38.3,75,30.20,10.0,Calm,Calm,-,N/A,,Clear,0,2012-10-29 03:55:00
11:15 PM,45.7,38.3,75,30.20,10.0,Calm,Calm,-,N/A,,Clear,0,2012-10-29 04:15:00
11:55 PM,45.3,38.3,76,30.20,10.0,North,3.5,-,N/A,,Clear,350,2012-10-29 04:55:00